Weather in Voskresenye

Russia / Kostroma Oblast     58°30′10″N   41°19′52″E
temp.,
°C
wind,
m/s
gust,
m/s
humid.,
%
clouds,
%
prec.,
mm/h
press.,
hPa
HPBL,
m
14 may, fri
fri1400:00+13ssw38976 3.8 1016269
03:00+11ssw38977 3.8 1018189
06:00+12ssw3894100 0.0 1018328
09:00+15sw477115 0.0 1019725
12:00+18ssw355399 0.0 10191315
15:00+19sw3456100 0.0 10181330
18:00+18s247515 0.7 1017385
21:00+14sse2387100 1.2 101645
15 may, sat
sat1500:00+13ese2496100 1.3 101593
03:00+13sse2498100 1.4 1015139
06:00+14ese3995100 0.6 1013321
09:00+18se4886100 1.4 1012561
12:00+22s41061100 0.1 1011959
15:00+22s61064100 0.7 10111391
18:00+18se37879 4.6 1009371
21:00+15sse410968 5.5 1009259
16 may, sun
sun1600:00+14s3109723 0.3 1010289
03:00+13s399710 0.3 1010215
06:00+14s410934 0.0 1010345
09:00+17ssw610760 0.0 1011787
12:00+20ssw7105939 0.0 10111814
15:00+20sw711668 1.1 10111568
18:00+17sw5108091 2.3 1011766
21:00+13ssw399417 2.7 1012201
17 may, mon
mon1700:00+12sw37965 0.0 1013164
03:00+11wsw249712 0.0 101589
06:00+13sw249456 0.0 1016155
09:00+17sw238094 0.0 1016549
12:00+21ssw235977 0.0 10161227
15:00+22s235499 0.0 10161392
18:00+21se236526 0.0 1015231
21:00+17ese337869 0.0 101429
18 may, tue
tue1800:00+14ese368999 0.1 1014106
03:00+13ese379419 0.1 1013122
06:00+15ese398864 0.0 1013216
09:00+21sse586691 0.0 1012471
12:00+26sse69459 0.0 10111142
15:00+26se610455 0.0 10101351
18:00+23se612575 0.0 1009520
21:00+18se515747 0.0 1009340